[[{"header":{"parameterUnit":"m.s-1","parameterCategory":1,"la1":30.2991,"la2":30.254,"lo1":-89.0895,"lo2":-89.0444,"dy":0.0017,"dx":0.0017,"nx":28,"ny":28,"refTime":"2025-05-28T21:00:00:Z","depth":0,"parameterNumber":2,"parameterNumberName":"U-component_of_WINDS"},"data":[0,0,0,0,0,0,0,0,0,0,0,0,0,0,0,0,0,0,0,0,0,0,0,0,0,0,0,0,0,0,0,0,0,0,0,0,0,0,0,0,0,0,0,0,0,0,0,0,0,0,0,0,0,0,0,0,0,0,0.352,0.3521,0,0.3612,0.3613,0.3614,0.3594,0.3593,0.3591,0.3589,0.3687,0.3691,0.3695,0,0,0,0,0,0,0,0,0,0,0,0,0,0.3327,0.3331,0.352,0.3521,0.3522,0.3612,0.3613,0.3615,0.3595,0.3593,0.359,0.3589,0.3685,0.369,0.3695,0,0,0,0,0,0,0,0,0,0,0,0,0,0.3414,0.3332,0.3519,0.3523,0.3524,0.3612,0.3613,0.3615,0.3595,0.3593,0.359,0.3588,0.3684,0.369,0.3696,0.3787,0,0,0.3715,0.3718,0,0,0,0,0,0,0,0,0.341,0.3422,0.3521,0.3523,0.3524,0.3589,0.3581,0.3673,0.3596,0.3568,0.3589,0.3586,0.3656,0.3665,0.3688,0.3792,0.3796,0.3716,0.372,0.3722,0.3724,0,0,0,0,0,0,0,0.3404,0.3417,0.3556,0.3523,0.3525,0.352,0.353,0.3598,0.3626,0.357,0.3569,0.358,0.3657,0.3682,0.369,0.3797,0.3716,0.3721,0.3725,0.3728,0.398,0.3983,0,0,0,0,0,0,0.3396,0.3413,0.3553,0.3559,0.3459,0.3526,0.3536,0.3571,0.3625,0.3631,0.3582,0.3579,0.3672,0.3683,0.3694,0.3804,0.3722,0.3728,0.3732,0.3977,0.3981,0.3984,0,0,0,0,0,0,0.3392,0.3409,0.355,0.3486,0.3503,0.3532,0.3571,0.3574,0.3599,0.3634,0.3639,0.3603,0.3671,0.3685,0.3764,0.3807,0.3731,0.3737,0.3974,0.3978,0.3982,0.4026,0,0,0,0,0,0,0.3386,0.3407,0.3442,0.3486,0.3507,0.3618,0.3573,0.3578,0.361,0.3606,0.3655,0.366,0.367,0.3754,0.377,0.3814,0.3742,0.397,0.3976,0.3981,0.4021,0.4031,0.404,0,0,0,0,0,0.338,0.3451,0.3444,0.3461,0.355,0.3621,0.3632,0.3641,0.3613,0.3649,0.3671,0.3659,0.3799,0.3763,0.378,0.3827,0.3968,0.3974,0.3981,0.4016,0.4029,0.404,0,0,0,0,0,0,0.3412,0.3457,0.3449,0.3537,0.3575,0.3617,0.3662,0.3654,0.3702,0.3696,0.3706,0.3717,0.3798,0.382,0.3778,0.3918,0.388,0.389,0.3901,0.3913,0.3923,0.3916,0.3747,0,0,0,0,0,0.3429,0.3481,0.3518,0.3592,0.3611,0.3633,0.3664,0.3668,0.3708,0.3724,0.3752,0.3792,0.3845,0.388,0.3931,0.4023,0.4034,0.4064,0.4074,0.4081,0.4091,0.4142,0.4156,0.4006,0.4006,0.4005,0,0,0.3465,0.3496,0.3529,0.3599,0.3629,0.3684,0.3647,0.3707,0.3748,0.3733,0.381,0.3832,0.3877,0.3963,0.4002,0.3984,0.4134,0.409,0.4096,0.4101,0.415,0.4164,0.4177,0.401,0.4009,0.4009,0,0,0.3559,0.3588,0.3652,0.3683,0.3728,0.3742,0.3757,0.3801,0.3814,0.3891,0.3881,0.393,0.4022,0.4054,0.4083,0.4188,0.4179,0.4205,0.4256,0.4305,0.4317,0.4328,0.4366,0.438,0.4214,0.4214,0.4214,0,0.3599,0.3681,0.3687,0.3748,0.3779,0.3767,0.3833,0.3862,0.3922,0.3945,0.3923,0.4037,0.4067,0.416,0.4186,0.4209,0.4228,0.42,0.4315,0.4325,0.4335,0.4372,0.4387,0.4217,0.4216,0.4216,0.4216,0,0.3727,0.3784,0.3831,0.3889,0.3925,0.3988,0.4004,0.4041,0.4041,0.4057,0.4135,0.417,0.4228,0.425,0.4251,0.4344,0.4331,0.4312,0.4274,0.4353,0.4387,0.4402,0.4221,0.422,0.4219,0.4218,0,0,0.3846,0.3905,0.3922,0.3948,0.3997,0.4041,0.4103,0.4159,0.419,0.4232,0.4285,0.4362,0.4344,0.4377,0.4381,0.4424,0.4506,0.44,0.4401,0.4419,0.4612,0.4627,0.4644,0.45,0.4503,0.4505,0.4609,0,0.3945,0.4055,0.4062,0.4162,0.4215,0.4203,0.4258,0.4294,0.4311,0.4358,0.4377,0.4432,0.4404,0.4423,0.4465,0.4488,0.4546,0.448,0.4551,0.4553,0.4541,0.4662,0.4678,0.4775,0.4622,0.4625,0.4626,0,0.4077,0.4121,0.4226,0.4266,0.4289,0.4338,0.4389,0.4435,0.4475,0.4484,0.452,0.4518,0.4583,0.4541,0.4631,0.4586,0.4615,0.463,0.4634,0.4642,0.4596,0.4674,0.4806,0.4821,0.4648,0.4646,0.4644,0,0.4154,0.424,0.4313,0.4336,0.4385,0.442,0.4442,0.448,0.4513,0.4558,0.4579,0.4631,0.466,0.4701,0.4713,0.4682,0.4803,0.4762,0.4814,0.4813,0.4841,0.484,0.498,0.4858,0.4857,0.4857,0.4857,0,0.4265,0.4329,0.4349,0.4394,0.4466,0.4474,0.4545,0.4565,0.4599,0.4649,0.4642,0.4689,0.4702,0.4751,0.4761,0.4834,0.4847,0.4857,0.4859,0.4859,0.4858,0.4879,0.4873,0.4861,0.486,0.4859,0.4859,0,0.4364,0.4379,0.4459,0.4499,0.451,0.4562,0.4596,0.464,0.4655,0.4718,0.4733,0.4758,0.4816,0.4831,0.4901,0.4907,0.4994,0.4989,0.498,0.4981,0.5032,0.5027,0.5192,0.5215,0.5076,0.5077,0.5078,0,0.4434,0.4484,0.4528,0.4561,0.4584,0.4637,0.467,0.4679,0.4714,0.4764,0.4802,0.4859,0.4905,0.4998,0.5022,0.5075,0.5072,0.5126,0.5081,0.5078,0.5075,0.5072,0.5078,0.5136,0.5137,0.5138,0.5139,0,0.4558,0.4563,0.4611,0.4662,0.4702,0.4742,0.4781,0.4808,0.4823,0.4862,0.4921,0.4956,0.5027,0.5084,0.5137,0.5161,0.5153,0.5153,0.5168,0.5169,0.5162,0.5168,0.5006,0.515,0.5149,0.5148,0.5148,0.5147,0.4646,0.469,0.4728,0.4782,0.4811,0.4848,0.4891,0.4911,0.496,0.5018,0.502,0.5084,0.5123,0.5194,0.522,0.5271,0.5255,0.5276,0.5282,0.5287,0.5292,0.5153,0.528,0.528,0.528,0.528,0.5279,0,0.4771,0.4794,0.4844,0.4898,0.494,0.4928,0.497,0.5007,0.5063,0.5099,0.5144,0.5212,0.5267,0.5295,0.5349,0.5384,0.5382,0.5399,0.5397,0.5403,0.5303,0.5285,0.5399,0.5399,0.5399,0.5399,0.5399,0.5399,0.4841,0.4914,0.4923,0.5011,0.5035,0.5097,0.5122,0.5156,0.5185,0.526,0.5306,0.5323,0.5357,0.5414,0.5464,0.547,0.5492,0.551,0.5515,0.5422,0.541,0.5398,0.5381,0.5514,0.5514,0.5611,0.5612,0.5613]},{"header":{"parameterUnit":"m.s-1","parameterCategory":1,"la1":30.2991,"la2":30.254,"lo1":-89.0895,"lo2":-89.0444,"dy":0.0017,"dx":0.0017,"nx":28,"ny":28,"refTime":"2025-05-28T21:00:00:Z","depth":0,"parameterNumber":3,"parameterNumberName":"V-component_of_WINDS"},"data":[0,0,0,0,0,0,0,0,0,0,0,0,0,0,0,0,0,0,0,0,0,0,0,0,0,0,0,0,0,0,0,0,0,0,0,0,0,0,0,0,0,0,0,0,0,0,0,0,0,0,0,0,0,0,0,0,0,0,3.7666,3.7669,0,3.7907,3.7909,3.7912,3.794,3.7938,3.7935,3.7933,3.8175,3.8184,3.8192,0,0,0,0,0,0,0,0,0,0,0,0,0,3.7225,3.7233,3.7666,3.7669,3.7672,3.7906,3.7909,3.7913,3.794,3.7937,3.7935,3.7932,3.8172,3.8183,3.8193,0,0,0,0,0,0,0,0,0,0,0,0,0,3.7436,3.7236,3.7665,3.7714,3.7721,3.7905,3.791,3.7914,3.7941,3.7937,3.7934,3.7931,3.8169,3.8182,3.8194,3.8346,0,0,3.8234,3.824,0,0,0,0,0,0,0,0,3.7424,3.7452,3.7704,3.7711,3.7719,3.789,3.7843,3.8058,3.7942,3.7857,3.7933,3.7929,3.8083,3.8103,3.8155,3.8357,3.8368,3.8235,3.8243,3.8249,3.8252,0,0,0,0,0,0,0,3.7409,3.7442,3.7761,3.7707,3.7717,3.7722,3.7748,3.7884,3.7987,3.7864,3.7867,3.7895,3.8086,3.8143,3.8161,3.8371,3.8235,3.8246,3.8254,3.826,3.8707,3.871,0,0,0,0,0,0,3.7386,3.7429,3.7753,3.7768,3.756,3.7733,3.7762,3.7838,3.7986,3.8005,3.7898,3.7896,3.8122,3.8146,3.817,3.8356,3.8249,3.8261,3.8268,3.8702,3.8707,3.8712,0,0,0,0,0,0,3.7377,3.7415,3.7744,3.76,3.7642,3.7744,3.783,3.7845,3.7902,3.8011,3.8029,3.7937,3.8121,3.8152,3.8302,3.8365,3.8267,3.8278,3.8698,3.8704,3.871,3.8729,0,0,0,0,0,0,3.7364,3.7411,3.7472,3.7601,3.765,3.7873,3.7834,3.7852,3.7925,3.7924,3.8053,3.8071,3.812,3.8282,3.8315,3.8381,3.8289,3.8692,3.87,3.8708,3.8724,3.8735,3.8746,0,0,0,0,0,3.7348,3.7467,3.7475,3.7513,3.7727,3.7877,3.7904,3.796,3.793,3.799,3.806,3.8067,3.8352,3.8297,3.8334,3.8405,3.8689,3.8698,3.8707,3.8719,3.8733,3.8745,0,0,0,0,0,0,3.7342,3.7485,3.7495,3.766,3.7756,3.7881,3.7959,3.7974,3.808,3.8075,3.8138,3.8167,3.8313,3.8374,3.831,3.8558,3.8517,3.8534,3.8513,3.8528,3.8539,3.8521,3.8299,0,0,0,0,0,3.7359,3.7471,3.7589,3.7723,3.7771,3.7856,3.7924,3.7958,3.806,3.8101,3.8181,3.8279,3.839,3.8462,3.8571,3.8732,3.8759,3.8799,3.881,3.8818,3.8832,3.892,3.8938,3.8742,3.8742,3.8742,0,0,3.7397,3.7489,3.7556,3.7724,3.7803,3.7914,3.7891,3.801,3.8094,3.8118,3.8265,3.8327,3.844,3.8595,3.8668,3.8651,3.8892,3.883,3.8836,3.8845,3.8931,3.895,3.8966,3.8748,3.8747,3.8746,0,0,3.7523,3.7605,3.7725,3.7804,3.7923,3.7979,3.8008,3.8131,3.8174,3.8322,3.8342,3.8441,3.8632,3.8711,3.8776,3.8929,3.8939,3.8963,3.902,3.9105,3.912,3.9134,3.9188,3.9207,3.8976,3.8976,3.8976,0,3.7555,3.7726,3.7784,3.7903,3.7976,3.8004,3.8124,3.8197,3.8346,3.8394,3.8373,3.8612,3.869,3.8863,3.8901,3.8953,3.8986,3.8949,3.9114,3.9128,3.9142,3.9194,3.9214,3.8978,3.8978,3.8978,3.8978,0,3.7759,3.7877,3.7958,3.8102,3.8184,3.8303,3.8376,3.8451,3.8478,3.8535,3.8684,3.8778,3.8906,3.8949,3.8976,3.9126,3.9112,3.9101,3.9062,3.9162,3.9212,3.9232,3.8981,3.898,3.898,3.8979,0,0,3.789,3.8062,3.8091,3.8156,3.8288,3.838,3.8498,3.8624,3.8687,3.8787,3.8888,3.9048,3.9038,3.9112,3.9148,3.9222,3.9336,3.9202,3.9206,3.9223,3.9505,3.9512,3.9535,3.9343,3.9347,3.935,3.9495,0,3.8031,3.8246,3.8299,3.8482,3.859,3.8617,3.872,3.8812,3.8868,3.8966,3.9027,3.914,3.9119,3.9164,3.9239,3.9306,3.9393,3.9296,3.9435,3.9439,3.9407,3.9561,3.9569,3.9703,3.9515,3.9519,3.9521,0,3.8225,3.833,3.8524,3.864,3.8688,3.878,3.8898,3.8993,3.9096,3.9131,3.9212,3.924,3.9363,3.9316,3.9485,3.9418,3.9477,3.9518,3.9525,3.954,3.9487,3.958,3.9747,3.9766,3.9553,3.955,3.9548,0,3.83,3.849,3.863,3.8684,3.8824,3.8888,3.8949,3.9049,3.912,3.9223,3.9269,3.9384,3.9447,3.9534,3.9591,3.9552,3.9755,3.9713,3.9787,3.9785,3.9829,3.9825,4.0007,3.9867,3.9866,3.9866,3.9866,0,3.8452,3.8569,3.8665,3.8752,3.8882,3.8942,3.9069,3.913,3.9218,3.9315,3.9344,3.9434,3.9504,3.9603,3.9648,3.978,3.9808,3.9839,3.985,3.9837,3.9833,3.9877,3.987,3.9871,3.987,3.9869,3.9868,0,3.8559,3.8629,3.8783,3.8902,3.8935,3.9026,3.9127,3.921,3.9266,3.9388,3.942,3.9507,3.9625,3.969,3.9838,3.9868,4.0015,4.0021,3.9981,3.9986,4.0055,4.0047,4.0272,4.0304,4.0142,4.0143,4.0144,0,3.8652,3.8743,3.8872,3.894,3.9002,3.911,3.9183,3.9243,3.9318,3.944,3.9508,3.9628,3.9727,3.9913,3.9989,4.0101,4.011,4.018,4.0127,4.011,4.011,4.0104,4.0113,4.019,4.0191,4.0192,4.0193,0,3.881,3.8839,3.8944,3.906,3.9146,3.924,3.9334,3.9386,3.9462,3.9543,3.9665,3.9741,3.9891,4.0009,4.0127,4.0188,4.0203,4.0209,4.0232,4.022,4.0193,4.0208,4.0006,4.0204,4.0203,4.0202,4.0202,4.0201,3.8913,3.8994,3.9097,3.9212,3.9288,3.9374,3.9458,3.9524,3.9626,3.9754,3.9783,3.991,4.0008,4.0168,4.0232,4.0331,4.0317,4.0351,4.0359,4.0366,4.0369,4.0177,4.0352,4.0352,4.0352,4.0352,4.0352,0,3.9072,3.9139,3.9244,3.9373,3.9463,3.947,3.9572,3.9646,3.9758,3.9849,3.9945,4.0083,4.0197,4.028,4.0396,4.0459,4.0468,4.0487,4.0483,4.0496,4.0374,4.0343,4.0477,4.0477,4.0477,4.0477,4.0477,4.0477,3.9165,3.9302,3.9343,3.9518,3.9583,3.9709,3.9767,3.9845,3.9918,4.0071,4.0166,4.0219,4.0307,4.0428,4.0532,4.0553,4.0594,4.0612,4.0634,4.0519,4.0505,4.0492,4.0463,4.062,4.0621,4.0748,4.0749,4.075]}]]